Date,TemperatureHighF,TemperatureAvgF,TemperatureLowF,DewpointHighF,DewpointAvgF,DewpointLowF,HumidityHigh,HumidityAvg,HumidityLow,PressureMaxIn,PressureMinIn,WindSpeedMaxMPH,WindSpeedAvgMPH,GustSpeedMaxMPH,PrecipitationSumIn
2013-2-1,72.5,51.2,34.5,34.6,31.2,25.6,81,52,18,30.22,30.13,5,1,9,0.00
2013-2-2,75.7,55.7,40.3,38.7,31.6,22.7,67,44,15,30.27,30.13,5,1,7,0.00
2013-2-3,69.4,58.9,51.1,39.9,36.0,27.9,63,44,23,30.16,29.99,5,1,8,0.00
2013-2-4,69.8,56.7,45.0,40.8,38.7,36.8,77,53,32,30.08,29.98,3,1,7,0.00
2013-2-5,74.8,57.5,43.8,43.0,40.4,36.2,79,56,25,30.06,29.95,6,2,12,0.00
2013-2-6,72.6,57.9,45.7,42.6,38.8,35.1,77,52,27,30.07,29.95,7,2,13,0.00
2013-2-7,70.4,55.9,43.9,40.0,35.6,22.9,76,50,18,30.14,29.99,4,1,8,0.00
2013-2-8,70.6,57.6,48.0,35.8,26.7,12.9,52,34,11,29.99,29.82,11,4,19,0.00
2013-2-9,55.1,46.0,38.7,38.2,29.6,23.0,87,55,32,30.05,29.84,8,2,14,0.12
2013-2-10,58.1,44.4,32.3,30.3,26.0,20.4,81,52,25,30.06,29.95,5,2,9,0.00
2013-2-11,52.2,39.9,33.2,36.6,29.7,23.0,92,69,37,30.17,29.98,10,2,18,0.26
2013-2-12,53.4,41.7,31.3,36.8,31.6,27.2,94,70,40,30.27,30.16,4,2,9,0.00
2013-2-13,61.1,46.0,31.7,29.5,26.0,17.1,83,50,20,30.21,30.09,4,2,8,0.00
2013-2-14,66.3,49.4,34.1,31.7,28.3,22.3,79,49,20,30.17,30.04,6,2,11,0.00
2013-2-15,72.3,54.4,39.4,36.5,28.0,17.3,74,42,16,30.26,30.13,4,1,11,0.00
2013-2-16,75.6,59.7,40.0,22.9,15.4,5.7,49,21,7,30.27,30.03,9,4,15,0.00
2013-2-17,75.5,60.6,46.6,23.8,15.6,5.9,34,19,7,30.03,29.89,8,3,13,0.00
2013-2-18,71.4,55.2,40.9,24.2,20.0,11.6,47,28,11,30.09,29.94,5,1,8,0.00
2013-2-19,72.8,58.5,45.0,31.8,18.9,7.7,45,24,9,29.97,29.75,18,5,19,0.00
2013-2-20,52.4,42.2,33.4,40.5,34.2,31.3,94,75,46,29.97,29.75,12,4,23,0.67
2013-2-21,53.0,43.4,33.5,37.7,34.3,31.6,95,73,47,30.06,29.95,5,2,9,0.12
2013-2-22,56.7,46.0,36.3,39.7,33.9,27.3,92,65,40,30.16,30.01,6,1,11,0.00
2013-2-23,65.3,48.6,33.4,34.0,29.7,21.8,85,53,21,30.15,29.87,9,1,18,0.00
2013-2-24,52.9,45.5,36.4,32.4,20.9,7.1,74,42,17,30.10,29.83,13,4,22,0.00
2013-2-25,59.7,44.6,29.3,23.9,19.6,15.2,71,40,20,30.21,30.05,4,1,9,0.00
2013-2-26,64.3,47.7,31.8,24.4,20.5,10.7,66,38,13,30.09,29.98,7,2,13,0.00
2013-2-27,65.3,49.8,34.8,24.1,14.4,5.0,58,28,10,30.21,30.09,7,2,12,0.00
2013-2-28,68.3,50.9,31.5,21.7,16.0,7.9,62,29,11,30.31,30.20,8,2,13,0.00